• Join FlightAware (Why Join?)
  • Login
  • US Flag 
01:55PM EDT


 

Airport Tracker/Info


-or-


 

Live Flight TrackerFlight Track Log ✈ N813JE ✈ 12-Dec-2013 ✈ KBED - KHPN

Flight Track Log - Related Links

Times and Time Zones

All times are in EST time to prevent confusion due to time zone crossing. See the N813JE flight status page for this flight to view local times or setup timezone preferences in your user account.

Time Position Orientation Groundspeed Altitude Reporting Facility
EST Latitude Longitude Course Direction KTS MPH feet Rate Location/Type
03:27PM 42.4667 -71.3167 200° South 122 140 1,100  Level KA90
03:28PM 42.4333 -71.3333 200° South 129 148 2,500 900 Climbing KA90
03:29PM 42.4000 -71.3667 216° Southwest 149 171 3,100 300 Climbing KA90
03:30PM 42.3667 -71.3667 180° South 171 197 3,100 360 Level KA90
03:31PM 42.3167 -71.3500 166° South 158 182 3,800 720 Climbing KA90
03:32PM 42.2928 -71.4042 239° Southwest 138 159 4,800 840 Climbing Boston Center
03:33PM 42.2744 -71.4481 241° Southwest 134 154 5,700 600 Climbing Boston Center
03:34PM 42.2567 -71.4922 241° Southwest 136 157 6,100 240 Climbing Boston Center
03:34PM 42.2425 -71.5281 242° Southwest 159 183 6,100  Level Boston Center
03:35PM 42.2342 -71.5475 240° Southwest 154 177 6,100  Level Boston Center
03:35PM 42.2231 -71.5736 240° Southwest 153 176 6,100 -120 Level Boston Center
03:36PM 42.2128 -71.5972 240° Southwest 153 176 6,000 -120 Descending Boston Center
03:36PM 42.2017 -71.6300 245° Southwest 149 171 6,000  Level Boston Center
03:37PM 42.1958 -71.6458 244° Southwest 147 169 6,000  Level Boston Center
03:38PM 42.1881 -71.6800 253° West 142 163 6,000  Level Boston Center
03:38PM 42.1833 -71.7014 253° West 144 166 6,000  Level Boston Center
03:39PM 42.1756 -71.7336 252° West 143 165 6,000  Level Boston Center
03:39PM 42.1708 -71.7522 251° West 143 165 6,000  Level Boston Center
03:40PM 42.1636 -71.7847 253° West 146 168 6,000  Level Boston Center
03:40PM 42.1594 -71.8042 254° West 144 166 6,000  Level Boston Center
03:41PM 42.1514 -71.8381 252° West 145 167 6,000  Level Boston Center
03:41PM 42.1469 -71.8553 251° West 144 166 6,000  Level Boston Center
03:42PM 42.1394 -71.8889 253° West 144 166 6,000  Level Boston Center
03:42PM 42.1339 -71.9094 250° West 141 162 6,000  Level Boston Center
03:43PM 42.1186 -71.9308 226° Southwest 143 165 6,000  Level Boston Center
03:43PM 42.1064 -71.9464 223° Southwest 144 166 6,000  Level Boston Center
03:44PM 42.0894 -71.9700 226° Southwest 141 162 6,000  Level Boston Center
03:44PM 42.0750 -71.9878 222° Southwest 150 173 6,000  Level Boston Center
03:45PM 42.0578 -72.0108 225° Southwest 158 182 6,000  Level Boston Center
03:45PM 42.0433 -72.0272 220° Southwest 155 178 6,000  Level Boston Center
03:46PM 42.0292 -72.0472 226° Southwest 153 176 6,000  Level Boston Center
03:46PM 42.0133 -72.0681 224° Southwest 155 178 6,000  Level Boston Center
03:47PM 41.9972 -72.0908 226° Southwest 153 176 6,000  Level Boston Center
03:47PM 41.9833 -72.1075 222° Southwest 150 173 6,000  Level Boston Center
03:48PM 41.9658 -72.1289 222° Southwest 153 176 6,000  Level Boston Center
03:48PM 41.9508 -72.1497 226° Southwest 152 175 6,000  Level Boston Center
03:49PM 41.9339 -72.1725 225° Southwest 153 176 6,000  Level Boston Center
03:49PM 41.9206 -72.1894 223° Southwest 152 175 6,000  Level Boston Center
03:50PM 41.9047 -72.2114 226° Southwest 148 170 6,000  Level Boston Center
03:50PM 41.8914 -72.2297 226° Southwest 152 175 6,000  Level Boston Center
03:51PM 41.8736 -72.2494 220° Southwest 150 173 6,000  Level Boston Center
03:51PM 41.8606 -72.2689 228° Southwest 153 176 6,000  Level Boston Center
03:52PM 41.8469 -72.2861 223° Southwest 153 176 6,000  Level Boston Center
03:52PM 41.8278 -72.3106 224° Southwest 151 174 6,000  Level Boston Center
03:53PM 41.8156 -72.3242 220° Southwest 151 174 6,000  Level Boston Center
03:53PM 41.7944 -72.3453 217° Southwest 151 174 6,000  Level Boston Center
03:54PM 41.7781 -72.3514 196° South 150 173 6,000  Level Boston Center
03:54PM 41.7558 -72.3711 214° Southwest 155 178 6,000  Level Boston Center
03:55PM 41.7378 -72.3803 201° Southwest 162 186 6,000  Level Boston Center
03:55PM 41.7178 -72.3981 214° Southwest 154 177 6,000  Level Boston Center
03:56PM 41.6994 -72.4100 206° Southwest 156 180 6,000  Level Boston Center
03:56PM 41.6772 -72.4281 211° Southwest 153 176 6,000  Level Boston Center
03:57PM 41.6614 -72.4397 209° Southwest 153 176 6,000  Level Boston Center
03:57PM 41.6403 -72.4547 208° Southwest 148 170 6,000  Level Boston Center
03:58PM 41.6236 -72.4667 208° Southwest 153 176 6,000  Level Boston Center
03:58PM 41.6019 -72.4833 210° Southwest 156 180 6,000  Level Boston Center
03:59PM 41.5858 -72.4933 205° Southwest 156 180 6,000  Level Boston Center
03:59PM 41.5644 -72.5103 211° Southwest 152 175 6,000  Level Boston Center
04:00PM 41.5478 -72.5231 210° Southwest 156 180 6,000  Level Boston Center
04:00PM 41.5233 -72.5400 207° Southwest 152 175 6,000  Level Boston Center
04:01PM 41.4861 -72.5672 209° Southwest 154 177 6,000  Level Boston Center
04:02PM 41.4497 -72.5944 209° Southwest 149 171 6,000  Level Boston Center
04:03PM 41.4128 -72.6200 207° Southwest 149 171 6,000  Level Boston Center
04:04PM 41.3756 -72.6525 213° Southwest 148 170 6,000  Level Boston Center
04:05PM 41.3675 -72.7039 258° West 144 166 6,000  Level Boston Center
04:07PM 41.3572 -72.7542 255° West 142 163 6,000  Level Boston Center
04:08PM 41.3467 -72.8036 254° West 140 161 6,000  Level Boston Center
04:09PM 41.3358 -72.8564 255° West 139 160 6,000 -360 Level Boston Center
04:10PM 41.3244 -72.9086 254° West 146 168 5,300 -780 Descending Boston Center
04:11PM 41.3114 -72.9678 254° West 163 188 4,400 -660 Descending Boston Center
04:12PM 41.3006 -73.0239 256° West 159 183 4,000 -240 Descending Boston Center
04:13PM 41.2900 -73.0753 255° West 136 157 4,000  Level Boston Center
04:14PM 41.2797 -73.1250 255° West 138 159 4,000  Level Boston Center
04:15PM 41.2692 -73.1725 254° West 142 163 4,000  Level Boston Center
04:16PM 41.2583 -73.2228 254° West 143 165 4,000  Level Boston Center
04:17PM 41.2478 -73.2703 254° West 137 158 4,000 -120 Level Boston Center
04:18PM 41.2378 -73.3194 255° West 138 159 3,800 -480 Descending Boston Center
04:19PM 41.1972 -73.3431 204° Southwest 147 169 3,100 -420 Descending Boston Center
04:20PM 41.1519 -73.3683 203° Southwest 149 171 3,000 -60 Descending Boston Center
04:21PM 41.1147 -73.3883 202° Southwest 146 168 3,000  Level Boston Center
04:22PM 41.0753 -73.4100 202° Southwest 148 170 3,000  Level Boston Center
04:23PM 41.0361 -73.4311 202° Southwest 151 174 3,000  Level Boston Center
04:24PM 40.9972 -73.4522 202° Southwest 151 174 3,000  Level Boston Center
04:25PM 40.9611 -73.4778 208° Southwest 150 173 3,000 -240 Level Boston Center
04:26PM 40.9492 -73.5283 253° West 149 171 2,600 -480 Descending Boston Center
04:27PM 40.9500 -73.6000 271° West 145 167 2,000 -300 Descending New York TRACON
04:28PM 40.9833 -73.6333 323° Northwest 136 157 2,000 -180 Level New York TRACON
04:29PM 41.0167 -73.6667 323° Northwest 137 158 1,700 -480 Descending New York TRACON
04:30PM 41.0333 -73.6833 323° Northwest 101 116 1,100 -600 Descending New York TRACON